Wind_Speed
20 21 21 21 23 23 23 24 24 24 24 25 25 25 26 26 27 27 28 29 29 28 28 28 29 31 31 31 32 31 31 30 30 30 29 28 28 28 28 28 28 29 28
19 20 20 21 22 22 23 24 25 26 26 26 26 26 27 27 28 28 29 28 28 29 29 29 29 30 31 32 33 33 32 31 31 31 31 30 30 29 29 30 30 31 31
20 20 20 20 21 22 22 23 24 26 26 26 26 26 27 27 28 29 29 29 29 29 29 30 31 31 31 31 32 32 32 32 31 32 31 31 30 31 31 31 31 32 32
20 20 21 21 22 22 23 24 24 25 25 26 26 26 27 28 28 29 29 29 30 30 31 31 31 32 32 32 32 32 32 32 32 32 33 32 31 31 31 32 33 32 33
21 21 22 22 22 23 23 24 24 25 26 26 27 27 27 28 28 29 28 28 29 30 31 31 32 32 32 33 33 33 32 31 32 32 32 32 32 31 31 31 32 33 33
21 21 21 22 23 24 24 25 25 25 26 26 27 27 27 28 28 28 28 28 29 30 30 31 32 32 32 32 32 31 31 31 31 32 32 31 31 32 31 31 33 33 34
21 22 22 23 24 25 26 26 27 26 26 26 27 27 28 28 28 29 29 29 29 29 30 30 31 32 32 31 31 31 31 31 32 32 32 31 30 32 32 32 33 34 34
22 22 23 24 25 25 26 26 27 27 27 27 28 28 29 29 29 29 30 29 29 29 29 30 30 30 31 31 31 32 31 32 32 32 32 32 32 33 33 33 33 35 35
21 22 23 23 24 24 25 25 26 27 28 29 29 28 29 29 29 30 30 31 31 31 30 29 28 29 29 31 31 32 32 33 33 33 33 33 33 33 34 34 34 34 35
20 21 21 22 23 24 24 25 26 26 27 28 28 28 29 30 30 30 30 30 31 30 30 29 29 29 29 31 32 31 31 32 33 34 34 34 34 35 35 35 35 34 35
21 21 22 22 22 23 24 24 25 26 27 27 28 28 28 29 29 30 30 30 30 29 29 28 29 29 29 30 30 31 31 31 33 34 34 35 35 35 34 35 35 35 35
21 21 22 22 23 23 24 24 25 25 26 26 26 26 26 27 28 28 28 28 28 28 27 27 27 28 28 28 29 29 31 31 31 32 32 32 33 33 32 34 34 34 35
22 22 22 23 23 23 23 24 24 25 24 25 25 25 25 25 26 26 26 26 26 26 26 26 26 26 26 27 28 29 29 30 30 30 30 31 31 31 32 32 33 33 34
23 23 23 23 24 24 24 24 24 24 24 24 24 23 23 23 22 22 22 23 24 25 25 26 26 25 26 27 27 27 28 29 29 29 29 29 30 30 31 30 31 32 34
23 23 23 23 23 24 24 23 23 23 23 23 22 22 21 21 20 20 20 21 21 23 23 23 23 24 24 25 25 26 26 26 27 28 28 28 29 29 29 29 30 31 31
22 22 23 23 23 22 22 22 22 21 21 21 20 20 19 19 18 18 19 19 19 19 20 20 21 20 21 22 22 23 24 24 25 26 27 28 28 28 28 29 29 28 29
22 22 22 21 21 20 20 19 20 19 19 18 18 17 16 15 15 15 15 16 17 17 17 17 18 18 19 19 20 21 21 21 23 24 24 25 25 25 25 26 27 28 29
21 21 21 20 19 18 18 18 18 17 17 16 16 15 14 13 13 12 12 12 13 13 14 14 15 16 16 16 17 17 18 18 19 20 20 21 21 22 23 24 25 25 26
20 20 19 18 17 16 16 16 15 15 14 14 13 12 12 11 10 10 10 9 10 10 11 11 12 13 13 12 13 14 15 15 16 16 17 18 19 20 20 20 21 22 22
19 19 17 16 16 15 14 13 12 12 12 11 11 10 9 9 8 8 8 8 7 7 7 7 8 9 9 10 10 11 12 13 13 14 14 14 15 15 16 17 18 18 19
18 17 16 15 14 13 11 10 10 10 9 9 8 8 7 7 6 6 5 5 5 5 5 6 6 6 6 6 6 7 8 9 10 11 11 12 12 13 14 15 15 15 16
15 14 13 12 10 10 8 8 8 8 7 7 6 6 5 5 4 4 3 3 3 3 4 3 3 2 2 3 4 4 5 6 6 7 8 8 9 10 11 12 12 12 12
13 12 11 9 8 7 6 6 5 5 5 5 5 4 2 1 1 1 1 1 1 1 1 1 1 1 1 1 1 2 2 3 3 4 4 5 6 7 8 8 8 9 9
10 9 8 7 6 5 4 4 4 4 5 4 4 3 3 3 3 4 4 3 3 4 4 4 3 3 3 3 3 3 3 3 3 4 4 5 5 6 6 6 6 6 7
8 7 6 6 5 4 4 4 4 5 5 5 6 6 6 7 7 7 7 7 6 6 6 6 6 5 5 6 7 7 6 6 5 5 5 5 5 5 5 5 5 6 6
6 6 6 6 5 5 5 6 6 6 7 8 9 9 9 9 9 9 9 8 8 8 8 8 8 8 8 8 8 8 7 7 7 7 7 6 6 6 6 5 5 5 5
Wind_Direction
268 268 269 270 270 271 272 271 270 268 269 269 270 268 266 265 264 263 262 261 259 258 259 261 259 255 253 252 252 253 252 254 254 254 254 253 251 250 252 252 249 249 249
269 270 271 271 271 272 274 274 271 269 269 269 269 268 267 266 264 264 263 261 261 259 260 260 259 257 255 253 255 252 251 253 254 254 255 253 251 252 253 253 251 249 249
271 273 272 272 274 274 274 275 273 270 268 269 269 269 268 267 265 264 263 263 262 259 259 258 257 256 255 255 253 251 252 253 253 253 253 251 252 253 253 253 250 248 247
273 274 273 273 274 275 276 277 275 274 272 270 268 268 267 266 266 265 265 266 264 263 262 261 259 254 254 253 252 251 250 251 252 252 250 249 250 252 253 251 248 248 248
276 276 275 275 274 276 277 278 276 277 274 272 270 269 268 268 266 266 267 267 265 263 262 260 259 256 254 252 252 250 250 251 253 253 251 250 249 251 252 250 247 248 251
277 277 277 276 276 278 279 279 278 279 277 274 272 271 270 269 267 266 267 266 264 262 263 263 261 259 255 252 253 252 251 251 251 251 251 251 251 251 251 250 249 249 252
279 279 280 280 280 281 280 280 279 279 278 277 274 273 271 270 268 266 266 266 265 263 263 264 261 259 255 252 253 253 251 251 250 250 249 249 251 251 251 252 250 250 253
281 282 283 282 283 283 282 282 279 277 276 276 275 274 272 271 270 269 267 266 265 264 263 262 261 256 254 253 252 252 252 250 249 248 248 249 250 251 251 252 252 253 256
285 286 287 287 285 285 285 285 282 279 277 276 274 272 272 271 271 269 267 267 266 266 265 262 260 256 255 252 251 250 250 251 249 248 249 250 250 252 251 251 253 255 258
287 289 290 290 288 288 288 287 285 281 279 276 273 273 272 272 271 269 268 267 267 267 266 262 261 258 254 252 249 250 251 252 251 250 250 251 252 253 253 252 252 253 255
290 291 291 291 291 292 292 290 288 285 282 280 278 276 275 274 272 270 269 268 267 266 266 262 262 260 258 255 253 252 252 253 253 251 251 252 253 253 254 252 251 251 254
293 293 292 292 293 293 294 293 290 288 286 285 283 281 278 275 273 271 269 267 266 265 264 263 262 259 258 257 255 253 253 254 254 252 252 253 253 252 252 251 250 252 254
294 293 293 293 294 294 294 293 293 292 289 287 285 283 280 276 274 272 271 268 266 263 261 262 261 258 257 257 256 254 255 255 254 253 253 254 255 254 252 252 253 254 255
296 296 295 295 295 295 295 295 295 294 293 290 287 285 281 279 277 273 270 268 266 264 262 261 259 257 257 258 257 258 257 256 255 254 255 255 255 255 253 252 254 254 255
298 296 295 297 296 295 296 296 296 295 294 293 291 287 281 278 276 273 271 270 267 263 262 261 261 260 259 260 260 259 258 257 255 254 254 254 253 256 255 255 255 255 258
301 298 298 297 296 297 297 297 297 296 296 294 291 289 284 278 276 275 273 270 266 264 263 262 262 261 262 261 260 258 257 255 253 253 254 254 256 258 258 258 257 259 263
305 303 301 299 299 299 299 299 298 297 297 295 294 291 290 285 281 278 275 270 266 266 264 264 261 260 259 258 259 260 258 257 255 256 257 257 258 258 259 261 263 264 266
305 305 303 301 301 300 301 300 299 298 298 298 295 294 294 289 284 281 278 275 271 269 268 264 258 256 257 256 257 258 259 261 261 259 258 260 264 263 262 263 265 267 268
307 307 306 305 303 302 301 301 301 302 302 301 298 293 293 289 287 284 280 276 271 269 265 257 254 256 257 257 255 256 258 260 260 260 262 263 265 264 263 265 267 267 268
312 313 311 308 308 307 306 305 306 307 306 303 301 298 297 295 289 282 280 275 274 272 263 258 255 259 260 260 259 257 257 259 260 263 265 266 267 267 268 271 273 273 274
315 315 314 311 310 310 309 310 312 314 313 308 305 301 299 296 286 273 270 271 268 263 261 258 256 257 260 264 268 265 263 265 266 268 270 272 272 274 275 276 277 278 278
318 318 317 315 314 312 312 317 319 322 324 323 321 313 303 294 284 271 273 271 260 262 261 264 264 262 275 285 286 274 271 271 274 276 275 275 279 282 281 280 280 282 284
323 325 325 322 321 322 323 327 329 331 333 337 342 343 344 328 330 5 48 88 124 130 118 97 70 64 38 19 354 332 309 318 315 313 309 305 304 304 300 295 292 294 294
332 336 338 336 338 343 348 356 357 354 356 1 11 30 52 72 83 85 90 91 95 104 97 88 90 88 79 69 59 53 53 39 21 2 346 332 325 323 319 312 306 305 305
344 352 0 6 12 17 28 33 31 34 40 48 61 69 78 84 85 86 87 88 91 95 95 91 90 86 80 74 68 63 55 43 32 19 8 2 358 351 343 332 325 320 318
9 19 25 29 38 49 56 55 59 63 67 70 73 77 80 82 84 87 89 90 92 92 94 94 90 83 76 69 63 57 52 47 44 41 36 30 22 15 11 5 355 348 344
Height
5842 5841 5841 5840 5840 5839 5838 5838 5837 5837 5836 5835 5835 5835 5834 5833 5833 5833 5833 5833 5833 5834 5834 5834 5835 5836 5838 5839 5841 5842 5843 5844 5846 5847 5848 5849 5850 5851 5853 5853 5855 5856 5857
5837 5836 5836 5835 5834 5833 5832 5831 5830 5830 5829 5829 5828 5828 5827 5827 5826 5826 5826 5826 5826 5826 5827 5828 5828 5829 5831 5832 5834 5835 5836 5838 5839 5840 5841 5843 5844 5845 5846 5847 5848 5849 5850
5832 5831 5830 5829 5829 5828 5826 5825 5824 5823 5822 5822 5821 5821 5820 5820 5819 5819 5819 5819 5819 5819 5820 5820 5821 5822 5823 5824 5826 5828 5829 5831 5832 5833 5834 5836 5837 5838 5839 5840 5841 5842 5843
5827 5826 5825 5824 5823 5822 5821 5819 5818 5817 5816 5815 5814 5814 5813 5813 5812 5812 5812 5812 5812 5812 5812 5813 5813 5814 5815 5817 5819 5820 5821 5823 5824 5825 5827 5829 5829 5831 5832 5833 5834 5835 5836
5821 5820 5819 5818 5817 5816 5814 5813 5811 5810 5809 5808 5807 5807 5806 5806 5805 5805 5805 5804 5804 5804 5805 5805 5805 5806 5807 5808 5810 5812 5813 5814 5816 5818 5819 5820 5822 5823 5824 5825 5827 5828 5829
5815 5814 5813 5812 5811 5809 5808 5807 5805 5804 5802 5801 5801 5800 5799 5799 5798 5798 5797 5797 5797 5797 5797 5797 5797 5797 5798 5800 5802 5804 5805 5807 5808 5810 5811 5813 5814 5816 5817 5818 5819 5820 5821
5810 5808 5807 5806 5804 5803 5801 5800 5798 5797 5796 5794 5794 5793 5792 5791 5791 5790 5790 5790 5790 5790 5790 5790 5790 5790 5791 5792 5794 5796 5798 5799 5801 5802 5804 5805 5807 5808 5809 5810 5811 5812 5813
5804 5802 5800 5799 5798 5796 5794 5792 5791 5790 5788 5787 5786 5786 5785 5784 5783 5783 5783 5783 5783 5783 5783 5783 5783 5783 5784 5785 5786 5788 5790 5791 5793 5794 5796 5797 5799 5800 5801 5802 5803 5804 5805
5799 5797 5795 5793 5791 5789 5787 5785 5784 5782 5781 5780 5778 5778 5777 5776 5776 5776 5776 5776 5775 5775 5775 5775 5775 5776 5777 5777 5779 5780 5782 5784 5785 5786 5788 5790 5791 5792 5794 5795 5796 5797 5798
5793 5791 5789 5787 5785 5783 5781 5778 5776 5775 5773 5771 5770 5770 5769 5769 5768 5768 5768 5768 5768 5767 5767 5768 5768 5769 5769 5770 5771 5773 5774 5776 5777 5778 5780 5782 5783 5785 5786 5787 5788 5789 5790
5788 5786 5784 5781 5779 5776 5774 5772 5769 5767 5766 5764 5763 5762 5761 5761 5760 5760 5760 5760 5760 5760 5760 5760 5761 5761 5762 5763 5764 5765 5767 5768 5769 5771 5772 5774 5775 5776 5778 5779 5780 5781 5782
5782 5780 5778 5775 5773 5770 5768 5765 5763 5761 5759 5757 5756 5754 5753 5753 5752 5752 5752 5752 5752 5752 5752 5753 5753 5754 5755 5756 5757 5758 5759 5760 5762 5763 5764 5766 5767 5768 5770 5771 5772 5773 5773
5777 5774 5772 5769 5767 5764 5762 5759 5757 5754 5752 5751 5749 5748 5746 5746 5745 5744 5744 5744 5744 5744 5745 5745 5746 5747 5748 5748 5749 5750 5751 5753 5754 5755 5757 5758 5759 5760 5761 5762 5763 5764 5765
5771 5768 5765 5763 5760 5758 5755 5753 5751 5748 5746 5744 5743 5741 5740 5739 5738 5737 5737 5737 5737 5737 5738 5738 5739 5739 5740 5741 5742 5743 5744 5745 5746 5748 5749 5750 5752 5753 5753 5754 5755 5756 5757
5765 5762 5759 5757 5754 5752 5749 5747 5745 5742 5740 5738 5736 5735 5733 5732 5732 5731 5731 5730 5730 5730 5731 5731 5732 5732 5733 5734 5735 5736 5737 5738 5739 5741 5742 5743 5744 5745 5746 5747 5748 5748 5749
5760 5756 5753 5751 5748 5746 5743 5741 5739 5736 5734 5732 5730 5729 5727 5726 5726 5725 5725 5724 5724 5724 5724 5725 5725 5726 5727 5727 5728 5729 5731 5731 5732 5733 5734 5735 5736 5737 5738 5739 5740 5741 5741
5754 5751 5748 5745 5743 5740 5738 5736 5733 5731 5729 5727 5725 5724 5722 5721 5720 5720 5719 5719 5719 5719 5719 5719 5720 5721 5721 5722 5723 5724 5725 5725 5726 5727 5728 5729 5729 5730 5731 5732 5732 5733 5734
5749 5746 5743 5740 5737 5735 5733 5731 5729 5726 5724 5723 5721 5719 5718 5717 5716 5715 5715 5715 5715 5715 5715 5715 5716 5716 5717 5717 5718 5719 5719 5720 5720 5721 5722 5723 5723 5724 5724 5725 5726 5726 5726
5744 5741 5738 5735 5733 5730 5728 5726 5724 5722 5721 5719 5717 5715 5714 5713 5712 5712 5712 5711 5711 5711 5711 5712 5712 5712 5713 5713 5714 5714 5715 5715 5716 5716 5717 5718 5718 5718 5718 5719 5719 5720 5720
5739 5736 5733 5731 5729 5727 5724 5723 5721 5719 5717 5716 5714 5712 5711 5710 5709 5709 5709 5709 5709 5708 5709 5709 5709 5709 5710 5710 5710 5711 5711 5712 5712 5712 5713 5713 5713 5713 5713 5714 5714 5714 5714
5735 5732 5730 5727 5725 5723 5721 5720 5718 5716 5715 5713 5711 5710 5709 5708 5707 5707 5707 5706 5706 5706 5706 5707 5707 5707 5707 5708 5708 5708 5708 5709 5709 5709 5709 5709 5709 5709 5709 5710 5710 5709 5709
5732 5729 5726 5724 5723 5721 5719 5718 5716 5714 5713 5711 5709 5708 5707 5706 5706 5705 5705 5705 5705 5705 5705 5705 5705 5706 5706 5706 5706 5706 5707 5707 5707 5707 5706 5706 5706 5706 5706 5706 5706 5705 5705
5729 5726 5724 5722 5720 5719 5717 5716 5715 5713 5712 5710 5709 5707 5706 5705 5705 5705 5704 5704 5705 5705 5705 5705 5705 5705 5705 5705 5705 5705 5705 5705 5705 5705 5705 5704 5704 5704 5704 5703 5703 5702 5702
5727 5725 5723 5721 5719 5718 5717 5715 5714 5713 5711 5710 5709 5707 5706 5706 5705 5705 5705 5705 5705 5705 5705 5706 5706 5706 5706 5706 5706 5706 5705 5705 5705 5704 5704 5703 5703 5702 5702 5701 5701 5700 5700
5726 5724 5722 5720 5719 5717 5716 5715 5714 5713 5712 5711 5709 5708 5708 5707 5706 5706 5706 5706 5706 5706 5707 5707 5707 5707 5707 5707 5707 5706 5706 5706 5705 5704 5704 5703 5702 5701 5700 5700 5699 5698 5698
5725 5724 5722 5721 5719 5718 5717 5716 5715 5714 5713 5712 5711 5710 5709 5709 5708 5708 5708 5708 5708 5708 5709 5709 5709 5709 5709 5709 5708 5708 5707 5707 5706 5705 5704 5703 5702 5701 5700 5699 5698 5697 5696